[[{"header":{"parameterUnit":"m.s-1","parameterCategory":1,"la1":30.2991,"la2":30.254,"lo1":-89.0895,"lo2":-89.0444,"dy":0.0017,"dx":0.0017,"nx":28,"ny":28,"refTime":"2024-08-17T09:00:00:Z","depth":0,"parameterNumber":2,"parameterNumberName":"U-component_of_WINDS"},"data":[0,0,0,0,0,0,0,0,0,0,0,0,0,0,0,0,0,0,0,0,0,0,0,0,0,0,0,0,0,0,0,0,0,0,0,0,0,0,0,0,0,0,0,0,0,0,0,0,0,0,0,0,0,0,0,0,0,0,4.9013,4.9014,0,4.9117,4.9118,4.9119,4.9057,4.9054,4.9051,4.9049,4.9152,4.9157,4.9163,0,0,0,0,0,0,0,0,0,0,0,0,0,4.8759,4.8764,4.9013,4.9014,4.9016,4.9116,4.9118,4.9119,4.9058,4.9054,4.9051,4.9047,4.915,4.9157,4.9163,0,0,0,0,0,0,0,0,0,0,0,0,0,4.8866,4.8766,4.9013,4.8997,4.8997,4.9116,4.9118,4.912,4.9059,4.9054,4.905,4.9046,4.9148,4.9156,4.9164,4.9304,0,0,4.919,4.9193,0,0,0,0,0,0,0,0,4.886,4.8876,4.8998,4.8998,4.8998,4.9069,4.9066,4.9181,4.906,4.9035,4.9048,4.9043,4.9128,4.9138,4.9167,4.9309,4.9313,4.919,4.9195,4.9199,4.9201,0,0,0,0,0,0,0,4.8853,4.8871,4.9054,4.9,4.9,4.8984,4.8994,4.9088,4.9105,4.9037,4.9033,4.9046,4.9127,4.9159,4.9169,4.9315,4.919,4.9197,4.9203,4.9206,4.9574,4.9578,0,0,0,0,0,0,4.8847,4.8865,4.9051,4.9057,4.8917,4.8992,4.9004,4.9051,4.9104,4.9108,4.905,4.9043,4.9147,4.9159,4.9172,4.9337,4.9199,4.9207,4.9211,4.9569,4.9575,4.958,0,0,0,0,0,0,4.8842,4.8864,4.9046,4.896,4.8982,4.9001,4.9055,4.9055,4.9087,4.9114,4.9116,4.9079,4.9144,4.916,4.9271,4.9339,4.921,4.9218,4.9563,4.9571,4.9577,4.9668,0,0,0,0,0,0,4.8835,4.8863,4.8917,4.8962,4.8987,4.9145,4.9059,4.9061,4.9102,4.9094,4.9142,4.9145,4.9142,4.9259,4.9279,4.9348,4.9224,4.9557,4.9567,4.9575,4.9659,4.9678,4.9694,0,0,0,0,0,4.8826,4.8938,4.892,4.8943,4.9055,4.9149,4.9163,4.9157,4.9108,4.9161,4.9178,4.9144,4.9329,4.9271,4.9293,4.9366,4.9553,4.9564,4.9574,4.9651,4.9674,4.9693,0,0,0,0,0,0,4.8901,4.8944,4.8924,4.9055,4.9099,4.9138,4.9206,4.9182,4.9241,4.923,4.922,4.9231,4.9346,4.9368,4.9302,4.9502,4.9433,4.9449,4.9484,4.9506,4.9522,4.9514,4.9231,0,0,0,0,0,4.8932,4.9006,4.904,4.9152,4.9175,4.9187,4.9228,4.922,4.9264,4.9282,4.9307,4.9351,4.9419,4.9464,4.9528,4.9663,4.9671,4.9724,4.9741,4.9755,4.9767,4.9837,4.986,4.9616,4.9616,4.9615,0,0,4.8998,4.9031,4.9078,4.9167,4.92,4.9275,4.9203,4.9286,4.9341,4.9295,4.94,4.942,4.9468,4.9591,4.9646,4.9612,4.9837,4.9769,4.9779,4.9785,4.9851,4.9874,4.9894,4.9623,4.9622,4.962,0,0,4.9156,4.919,4.9285,4.932,4.9371,4.9378,4.9402,4.9445,4.9457,4.9563,4.9529,4.9594,4.9712,4.9747,4.978,4.9951,4.992,4.9972,5.006,5.0129,5.0148,5.0165,5.0223,5.0244,4.9985,4.9986,4.9986,0,4.9231,4.9344,4.9337,4.9422,4.9461,4.9424,4.9519,4.9553,4.9623,4.965,4.9611,4.9757,4.9787,4.9916,4.9957,4.9987,5.0011,4.9965,5.0146,5.0163,5.0179,5.0233,5.0255,4.9991,4.9991,4.999,4.999,0,4.9432,4.9511,4.9581,4.9649,4.9697,4.9787,4.9792,4.9841,4.9829,4.984,4.9947,4.9982,5.0051,5.0082,5.0071,5.0209,5.0185,5.0147,5.0076,5.0208,5.0259,5.028,5.0,4.9997,4.9996,4.9994,0,0,4.9638,4.9701,4.9727,4.9756,4.981,4.987,4.9958,5.0026,5.0066,5.0116,5.0187,5.0288,5.0252,5.0289,5.0282,5.0343,5.0472,5.0296,5.0297,5.0325,5.0622,5.0648,5.0673,5.0453,5.0457,5.046,5.0617,0,4.9797,4.995,4.9946,5.0088,5.0159,5.0124,5.02,5.0241,5.0253,5.0314,5.0328,5.0398,5.0347,5.0369,5.0428,5.0444,5.0531,5.0433,5.0517,5.052,5.0502,5.07,5.0729,5.0874,5.0637,5.0641,5.0643,0,5.0002,5.0058,5.0207,5.0248,5.0277,5.0346,5.0407,5.0467,5.0511,5.0516,5.0558,5.0541,5.0628,5.0557,5.0676,5.0609,5.0643,5.0657,5.0662,5.0667,5.0587,5.0707,5.0921,5.0941,5.0675,5.0673,5.067,0,5.0133,5.0246,5.0349,5.0375,5.0427,5.0475,5.0499,5.0539,5.058,5.0634,5.0659,5.0723,5.0756,5.0805,5.0805,5.0754,5.0923,5.0854,5.0927,5.0927,5.0962,5.0959,5.1181,5.099,5.099,5.0989,5.0989,0,5.0309,5.04,5.0408,5.0471,5.0572,5.0567,5.0666,5.0685,5.0721,5.0786,5.0761,5.0822,5.082,5.0881,5.0882,5.0978,5.0994,5.0999,5.0997,5.0999,5.0998,5.1019,5.1007,5.0995,5.0994,5.0993,5.0992,0,5.0471,5.0481,5.059,5.063,5.0642,5.0714,5.0748,5.0807,5.0817,5.0899,5.0918,5.0935,5.1006,5.1011,5.1094,5.1094,5.1209,5.1198,5.1194,5.1191,5.1263,5.1255,5.1503,5.1534,5.1326,5.1328,5.133,0,5.0581,5.065,5.0698,5.074,5.0766,5.0834,5.0875,5.0873,5.0916,5.0972,5.1023,5.1092,5.1147,5.1262,5.128,5.1342,5.133,5.1413,5.1339,5.1338,5.1327,5.1322,5.1327,5.1426,5.1429,5.1431,5.1432,0,5.0774,5.0775,5.0835,5.0898,5.0948,5.0997,5.1042,5.1077,5.108,5.113,5.1203,5.1245,5.1329,5.1397,5.1457,5.148,5.1456,5.1456,5.1475,5.1476,5.1469,5.147,5.1229,5.1449,5.1447,5.1446,5.1445,5.1445,5.0911,5.097,5.1012,5.108,5.1114,5.1157,5.1213,5.1231,5.1292,5.1359,5.1355,5.1434,5.1475,5.1554,5.1582,5.1643,5.1614,5.1644,5.1651,5.1657,5.1663,5.1463,5.1654,5.1654,5.1653,5.1653,5.1653,0,5.1099,5.1124,5.1187,5.1251,5.1304,5.1279,5.1327,5.1373,5.1443,5.1484,5.1538,5.162,5.1685,5.1709,5.1772,5.1816,5.1806,5.1832,5.1827,5.1832,5.1686,5.1661,5.1839,5.1839,5.1839,5.1839,5.1839,5.1839,5.1203,5.13,5.1306,5.142,5.1444,5.1522,5.1552,5.159,5.1622,5.1715,5.1769,5.1785,5.1818,5.1883,5.1941,5.1946,5.1969,5.1999,5.1999,5.1862,5.1843,5.1825,5.1801,5.2005,5.2005,5.2139,5.2141,5.2141]},{"header":{"parameterUnit":"m.s-1","parameterCategory":1,"la1":30.2991,"la2":30.254,"lo1":-89.0895,"lo2":-89.0444,"dy":0.0017,"dx":0.0017,"nx":28,"ny":28,"refTime":"2024-08-17T09:00:00:Z","depth":0,"parameterNumber":3,"parameterNumberName":"V-component_of_WINDS"},"data":[0,0,0,0,0,0,0,0,0,0,0,0,0,0,0,0,0,0,0,0,0,0,0,0,0,0,0,0,0,0,0,0,0,0,0,0,0,0,0,0,0,0,0,0,0,0,0,0,0,0,0,0,0,0,0,0,0,0,1.0407,1.0407,0,1.0463,1.0464,1.0465,1.0478,1.0478,1.0478,1.0477,1.0538,1.054,1.0542,0,0,0,0,0,0,0,0,0,0,0,0,0,1.0315,1.0316,1.0407,1.0408,1.0408,1.0463,1.0464,1.0465,1.0479,1.0478,1.0478,1.0477,1.0537,1.054,1.0542,0,0,0,0,0,0,0,0,0,0,0,0,0,1.0361,1.0317,1.0407,1.0422,1.0424,1.0463,1.0464,1.0465,1.0479,1.0478,1.0478,1.0477,1.0537,1.054,1.0542,1.0572,0,0,1.0551,1.0553,0,0,0,0,0,0,0,0,1.0359,1.0365,1.0419,1.0421,1.0423,1.0463,1.0454,1.0501,1.0479,1.0458,1.0477,1.0477,1.0514,1.0519,1.053,1.0575,1.0577,1.0552,1.0553,1.0555,1.0556,0,0,0,0,0,0,0,1.0355,1.0362,1.0429,1.042,1.0422,1.0427,1.0433,1.0463,1.0488,1.046,1.0461,1.0467,1.0515,1.0528,1.0532,1.0578,1.0552,1.0554,1.0556,1.0557,1.0651,1.0651,0,0,0,0,0,0,1.0349,1.036,1.0427,1.0431,1.0389,1.0429,1.0436,1.0451,1.0488,1.0493,1.0467,1.0468,1.0523,1.0529,1.0534,1.0572,1.0555,1.0557,1.0559,1.065,1.0651,1.0651,0,0,0,0,0,0,1.0347,1.0355,1.0425,1.0396,1.0405,1.0431,1.0448,1.0452,1.0465,1.0494,1.0499,1.0476,1.0523,1.053,1.0562,1.0574,1.0559,1.0561,1.0649,1.065,1.0651,1.0646,0,0,0,0,0,0,1.0344,1.0354,1.0365,1.0396,1.0406,1.0451,1.0449,1.0454,1.047,1.047,1.0503,1.0508,1.0523,1.0558,1.0565,1.0578,1.0564,1.0648,1.0649,1.0651,1.0646,1.0647,1.0648,0,0,0,0,0,1.0341,1.0362,1.0365,1.0373,1.042,1.0452,1.0458,1.0474,1.0471,1.0482,1.0501,1.0507,1.0571,1.0561,1.057,1.0583,1.0647,1.0649,1.0651,1.0645,1.0647,1.0648,0,0,0,0,0,0,1.0332,1.0366,1.037,1.0401,1.0423,1.0454,1.0469,1.0475,1.05,1.05,1.0519,1.0527,1.0558,1.0574,1.0562,1.0614,1.061,1.0613,1.0602,1.0604,1.0606,1.0601,1.0566,0,0,0,0,0,1.0333,1.0356,1.0384,1.0409,1.042,1.0442,1.0457,1.0467,1.0492,1.0502,1.0523,1.0547,1.0573,1.059,1.0615,1.0648,1.0656,1.0662,1.0663,1.0664,1.0667,1.0687,1.069,1.0657,1.0657,1.0657,0,0,1.0337,1.0358,1.0371,1.0408,1.0426,1.045,1.045,1.0475,1.0493,1.0506,1.0537,1.0554,1.0582,1.0615,1.0631,1.063,1.0678,1.0666,1.0667,1.0669,1.0688,1.0692,1.0694,1.0658,1.0658,1.0657,0,0,1.0355,1.0373,1.0396,1.0415,1.0442,1.0457,1.0463,1.0493,1.0504,1.0536,1.0546,1.0569,1.0613,1.0633,1.0649,1.0676,1.0683,1.0684,1.0691,1.071,1.0713,1.0715,1.0725,1.0729,1.0686,1.0686,1.0686,0,1.0357,1.0391,1.0407,1.0432,1.0448,1.046,1.0484,1.0501,1.0536,1.0548,1.0546,1.0601,1.0622,1.066,1.0666,1.0679,1.0687,1.068,1.0711,1.0713,1.0716,1.0726,1.073,1.0686,1.0686,1.0686,1.0686,0,1.0392,1.0416,1.0431,1.0464,1.0482,1.0506,1.0527,1.0544,1.0553,1.0568,1.0602,1.0626,1.0657,1.0667,1.0676,1.0707,1.0705,1.0707,1.0703,1.0719,1.0729,1.0733,1.0686,1.0686,1.0686,1.0686,0,0,1.0406,1.0447,1.0453,1.0468,1.05,1.052,1.0545,1.0574,1.0589,1.0613,1.0635,1.0672,1.0674,1.0692,1.0704,1.0721,1.0742,1.0721,1.0722,1.0724,1.0778,1.0777,1.0781,1.0746,1.0747,1.0748,1.0776,0,1.0428,1.0472,1.0488,1.0525,1.0548,1.056,1.0583,1.0605,1.0621,1.0644,1.0662,1.0688,1.0688,1.0699,1.0716,1.0735,1.0753,1.0734,1.0768,1.077,1.0761,1.0786,1.0785,1.081,1.078,1.078,1.0781,0,1.046,1.0484,1.0523,1.0553,1.0564,1.0583,1.0612,1.0633,1.066,1.067,1.0691,1.0702,1.073,1.0724,1.0764,1.0751,1.0766,1.0778,1.0779,1.0783,1.0776,1.0791,1.0818,1.0822,1.0787,1.0787,1.0786,0,1.0467,1.0509,1.0538,1.0551,1.0586,1.06,1.0616,1.0642,1.0659,1.0684,1.0696,1.0725,1.074,1.0763,1.0782,1.0776,1.0821,1.0816,1.0831,1.083,1.084,1.0839,1.087,1.0849,1.0849,1.0849,1.0849,0,1.0491,1.0514,1.0542,1.0559,1.0587,1.0605,1.0632,1.0649,1.0672,1.0694,1.0707,1.0728,1.0751,1.0775,1.0791,1.0822,1.0829,1.0839,1.0843,1.0838,1.0836,1.0848,1.0847,1.085,1.085,1.085,1.0849,0,1.0503,1.0522,1.0554,1.0585,1.0594,1.0612,1.064,1.0658,1.0674,1.0703,1.071,1.0736,1.0766,1.0787,1.0825,1.0835,1.0869,1.0872,1.0859,1.0861,1.0875,1.0873,1.0915,1.0921,1.0896,1.0896,1.0896,0,1.0516,1.0535,1.0568,1.0583,1.0598,1.0623,1.064,1.066,1.0678,1.071,1.0725,1.0755,1.078,1.0827,1.085,1.0879,1.0884,1.0896,1.0888,1.0883,1.0885,1.0883,1.0885,1.0897,1.0897,1.0898,1.0898,0,1.0539,1.0548,1.0572,1.0599,1.062,1.0643,1.0666,1.0678,1.0702,1.0721,1.0751,1.0771,1.0809,1.084,1.0871,1.0889,1.0898,1.09,1.0905,1.09,1.0892,1.0897,1.0863,1.0899,1.0899,1.0899,1.0899,1.0899,1.0553,1.057,1.0596,1.0622,1.0642,1.0664,1.0683,1.0701,1.0726,1.0759,1.0769,1.08,1.0828,1.0871,1.0889,1.0915,1.0914,1.0921,1.0923,1.0925,1.0925,1.0888,1.0921,1.0921,1.0921,1.0921,1.0921,0,1.0576,1.0594,1.0618,1.065,1.0671,1.0677,1.0703,1.0721,1.0748,1.0772,1.0797,1.0832,1.0861,1.0887,1.0918,1.0933,1.0938,1.0941,1.094,1.0944,1.0923,1.0916,1.0936,1.0936,1.0936,1.0936,1.0936,1.0936,1.0591,1.0621,1.0633,1.0672,1.069,1.072,1.0735,1.0755,1.0775,1.0813,1.0837,1.0853,1.0879,1.0912,1.0939,1.0946,1.0957,1.0959,1.0967,1.0947,1.0945,1.0943,1.0937,1.0961,1.0961,1.0986,1.0986,1.0986]}]]